[[{"header":{"parameterUnit":"m.s-1","parameterCategory":1,"la1":30.2991,"la2":30.254,"lo1":-89.0895,"lo2":-89.0444,"dy":0.0017,"dx":0.0017,"nx":28,"ny":28,"refTime":"2024-06-13T21:00:00:Z","depth":0,"parameterNumber":2,"parameterNumberName":"U-component_of_WINDS"},"data":[0,0,0,0,0,0,0,0,0,0,0,0,0,0,0,0,0,0,0,0,0,0,0,0,0,0,0,0,0,0,0,0,0,0,0,0,0,0,0,0,0,0,0,0,0,0,0,0,0,0,0,0,0,0,0,0,0,0,1.0257,1.0258,0,1.0369,1.0371,1.0372,1.0415,1.0414,1.0414,1.0414,1.0528,1.0531,1.0535,0,0,0,0,0,0,0,0,0,0,0,0,0,1.0079,1.0082,1.0257,1.0258,1.026,1.0369,1.0371,1.0372,1.0415,1.0414,1.0414,1.0413,1.0527,1.0531,1.0535,0,0,0,0,0,0,0,0,0,0,0,0,0,1.017,1.0083,1.0257,1.0294,1.0299,1.0369,1.0371,1.0373,1.0415,1.0414,1.0414,1.0413,1.0526,1.053,1.0535,1.0576,0,0,1.0551,1.0553,0,0,0,0,0,0,0,0,1.0165,1.0176,1.0287,1.0292,1.0297,1.0377,1.035,1.0441,1.0415,1.0371,1.0414,1.0413,1.0478,1.0487,1.0509,1.0582,1.0587,1.0551,1.0554,1.0556,1.0558,0,0,0,0,0,0,0,1.0158,1.0172,1.0301,1.0289,1.0295,1.0305,1.0318,1.0367,1.0426,1.0374,1.0378,1.0391,1.0481,1.0504,1.0512,1.0588,1.0551,1.0556,1.0559,1.0561,1.07,1.0701,0,0,0,0,0,0,1.0146,1.0166,1.0298,1.0305,1.0228,1.0309,1.0323,1.0352,1.0425,1.0436,1.0391,1.0392,1.0496,1.0506,1.0516,1.0569,1.0556,1.0561,1.0564,1.0699,1.07,1.0701,0,0,0,0,0,0,1.0142,1.0157,1.0293,1.0237,1.0255,1.0312,1.0345,1.0355,1.0378,1.0438,1.0448,1.0404,1.0496,1.0509,1.0561,1.0574,1.0563,1.0568,1.0699,1.07,1.0701,1.0675,0,0,0,0,0,0,1.0137,1.0156,1.0172,1.0237,1.0258,1.0336,1.0346,1.0357,1.0387,1.0389,1.0453,1.0463,1.0497,1.0553,1.0566,1.058,1.0572,1.0698,1.0699,1.07,1.0675,1.0675,1.0675,0,0,0,0,0,1.013,1.016,1.0172,1.0188,1.0279,1.0337,1.0349,1.0387,1.0388,1.0404,1.0443,1.0461,1.057,1.0558,1.0573,1.0589,1.0697,1.0699,1.07,1.0675,1.0675,1.0675,0,0,0,0,0,0,1.0095,1.0169,1.0184,1.0235,1.0279,1.0344,1.0366,1.0386,1.043,1.0431,1.0476,1.049,1.0538,1.0569,1.0554,1.0633,1.0635,1.064,1.0611,1.0611,1.0611,1.0602,1.0576,0,0,0,0,0,1.0093,1.0134,1.0197,1.0236,1.0257,1.0308,1.0334,1.036,1.0407,1.0426,1.0468,1.0513,1.0558,1.0586,1.0631,1.068,1.0694,1.0698,1.0698,1.0698,1.0701,1.0729,1.0731,1.0706,1.0706,1.0706,0,0,1.0089,1.0135,1.0158,1.023,1.0267,1.0308,1.0323,1.0366,1.0397,1.0433,1.0484,1.0517,1.057,1.0621,1.0645,1.0648,1.0711,1.07,1.0699,1.0702,1.0731,1.0733,1.0735,1.0707,1.0707,1.0707,0,0,1.0104,1.0143,1.018,1.0217,1.0273,1.0307,1.0316,1.0378,1.0401,1.0453,1.0481,1.0518,1.0594,1.0631,1.066,1.0689,1.0707,1.0702,1.0702,1.0729,1.0731,1.0733,1.0743,1.0746,1.0705,1.0705,1.0705,0,1.0093,1.0156,1.0197,1.0238,1.0269,1.0304,1.0341,1.0375,1.0443,1.0463,1.0465,1.0562,1.06,1.0659,1.0667,1.0689,1.07,1.0695,1.0727,1.073,1.0732,1.0742,1.0746,1.0704,1.0704,1.0704,1.0704,0,1.0139,1.0182,1.0206,1.027,1.0304,1.0343,1.039,1.0419,1.0441,1.0474,1.0527,1.0575,1.0629,1.0646,1.0668,1.0709,1.0708,1.0718,1.0722,1.0733,1.0743,1.0747,1.0702,1.0703,1.0703,1.0703,0,0,1.0134,1.0221,1.0229,1.0259,1.0323,1.0358,1.0399,1.0452,1.0476,1.0522,1.0557,1.0621,1.063,1.0663,1.069,1.0714,1.0733,1.0721,1.0723,1.0721,1.0781,1.0772,1.0776,1.0747,1.0747,1.0748,1.0776,0,1.0157,1.0232,1.027,1.0328,1.0369,1.0403,1.0438,1.0482,1.0514,1.0553,1.0589,1.0633,1.0642,1.0662,1.0687,1.0726,1.0746,1.0724,1.078,1.0781,1.0765,1.0782,1.0773,1.0797,1.078,1.0781,1.0782,0,1.0193,1.0239,1.0302,1.0362,1.038,1.0412,1.0464,1.0501,1.0551,1.0573,1.0609,1.0636,1.068,1.0681,1.0743,1.0727,1.0752,1.0774,1.0776,1.0782,1.0781,1.0788,1.0806,1.0809,1.0788,1.0788,1.0787,0,1.0183,1.026,1.0307,1.0332,1.0404,1.0425,1.0456,1.0505,1.0535,1.0581,1.0601,1.0651,1.0678,1.0716,1.0756,1.0753,1.0814,1.0817,1.0833,1.0832,1.0844,1.0842,1.0865,1.086,1.086,1.086,1.086,0,1.0204,1.0241,1.0304,1.0333,1.0375,1.0418,1.0459,1.0492,1.0536,1.0572,1.0605,1.0638,1.0688,1.0728,1.0759,1.0805,1.0818,1.0836,1.0844,1.0833,1.0831,1.085,1.0849,1.0861,1.0861,1.0861,1.0861,0,1.0199,1.0243,1.0297,1.036,1.0377,1.0405,1.046,1.0489,1.0523,1.0568,1.0582,1.0635,1.0683,1.0726,1.079,1.0811,1.0859,1.0869,1.0841,1.0846,1.0858,1.0856,1.0894,1.0901,1.0891,1.0892,1.0892,0,1.021,1.0239,1.0306,1.0332,1.0363,1.0405,1.0436,1.048,1.051,1.057,1.0592,1.0643,1.0685,1.0761,1.0805,1.0854,1.0866,1.0875,1.0873,1.0861,1.0865,1.0863,1.0866,1.0875,1.0875,1.0875,1.0874,0,1.0224,1.0244,1.0287,1.0338,1.0374,1.0416,1.0459,1.0478,1.053,1.0563,1.0613,1.0646,1.0712,1.0761,1.0815,1.0847,1.0869,1.0875,1.0881,1.087,1.0853,1.0862,1.084,1.0874,1.0874,1.0874,1.0874,1.0874,1.0227,1.0255,1.0306,1.0353,1.039,1.0429,1.046,1.0498,1.054,1.0597,1.062,1.0671,1.0721,1.0796,1.0827,1.0868,1.0872,1.0881,1.0883,1.0884,1.0882,1.0847,1.0878,1.0878,1.0878,1.0878,1.0878,0,1.0242,1.0277,1.032,1.0379,1.0416,1.0434,1.0483,1.0512,1.0556,1.0601,1.0642,1.07,1.0748,1.0796,1.0848,1.0871,1.0882,1.0882,1.0881,1.0888,1.0876,1.0865,1.0872,1.0872,1.0872,1.0872,1.0872,1.0872,1.0255,1.0302,1.0328,1.0394,1.0429,1.0479,1.0505,1.0541,1.0577,1.064,1.068,1.0711,1.0758,1.0813,1.0858,1.0871,1.0888,1.0886,1.0901,1.0889,1.0889,1.0889,1.0879,1.0889,1.0889,1.0911,1.0911,1.0911]},{"header":{"parameterUnit":"m.s-1","parameterCategory":1,"la1":30.2991,"la2":30.254,"lo1":-89.0895,"lo2":-89.0444,"dy":0.0017,"dx":0.0017,"nx":28,"ny":28,"refTime":"2024-06-13T21:00:00:Z","depth":0,"parameterNumber":3,"parameterNumberName":"V-component_of_WINDS"},"data":[0,0,0,0,0,0,0,0,0,0,0,0,0,0,0,0,0,0,0,0,0,0,0,0,0,0,0,0,0,0,0,0,0,0,0,0,0,0,0,0,0,0,0,0,0,0,0,0,0,0,0,0,0,0,0,0,0,0,1.0594,1.0592,0,1.0445,1.0443,1.0442,1.0358,1.0357,1.0357,1.0357,1.0198,1.0194,1.019,0,0,0,0,0,0,0,0,0,0,0,0,0,1.0799,1.0795,1.0594,1.0592,1.059,1.0445,1.0443,1.0441,1.0358,1.0357,1.0357,1.0357,1.0199,1.0195,1.019,0,0,0,0,0,0,0,0,0,0,0,0,0,1.0686,1.0794,1.0594,1.0531,1.0524,1.0446,1.0443,1.0441,1.0358,1.0357,1.0357,1.0357,1.0201,1.0195,1.0189,1.016,0,0,1.0171,1.0168,0,0,0,0,0,0,0,0,1.0692,1.0678,1.0542,1.0535,1.0527,1.042,1.0457,1.0346,1.0358,1.0421,1.0357,1.0356,1.0272,1.026,1.0233,1.0153,1.0146,1.0171,1.0167,1.0164,1.0163,0,0,0,0,0,0,0,1.07,1.0684,1.0535,1.054,1.0531,1.0508,1.0492,1.0436,1.035,1.0415,1.0409,1.0393,1.0267,1.0239,1.0228,1.0144,1.0171,1.0165,1.0162,1.0159,1.003,1.003,0,0,0,0,0,0,1.0719,1.0691,1.054,1.053,1.0611,1.0505,1.0486,1.0455,1.035,1.0334,1.0393,1.0389,1.0249,1.0235,1.0222,1.018,1.0164,1.0159,1.0155,1.003,1.003,1.003,0,0,0,0,0,0,1.0724,1.0706,1.0546,1.0609,1.0587,1.0502,1.0467,1.0452,1.0423,1.0334,1.0317,1.038,1.0248,1.0231,1.0176,1.0174,1.0156,1.0151,1.003,1.003,1.003,1.0097,0,0,0,0,0,0,1.073,1.0709,1.0699,1.061,1.0584,1.0505,1.0466,1.0449,1.0414,1.0407,1.0317,1.0302,1.0247,1.0186,1.017,1.0165,1.0146,1.003,1.003,1.003,1.0095,1.01,1.0104,0,0,0,0,0,1.0738,1.0722,1.0699,1.0681,1.057,1.0505,1.049,1.0428,1.0414,1.0402,1.0344,1.0305,1.0177,1.0181,1.0163,1.0156,1.003,1.003,1.003,1.0093,1.0099,1.0104,0,0,0,0,0,0,1.0811,1.071,1.0682,1.0638,1.0581,1.0491,1.0474,1.0437,1.0381,1.0377,1.0301,1.0281,1.0234,1.0189,1.0196,1.0121,1.0099,1.0095,1.0152,1.0157,1.0162,1.0173,1.0141,0,0,0,0,0,1.0823,1.0781,1.0693,1.0662,1.0635,1.056,1.0529,1.0487,1.0423,1.0398,1.0337,1.0275,1.0221,1.0186,1.0132,1.0088,1.0066,1.0074,1.0079,1.0083,1.0081,1.0052,1.0054,1.0031,1.0031,1.0031,0,0,1.0845,1.0784,1.0762,1.0675,1.0626,1.0582,1.054,1.0495,1.046,1.039,1.0336,1.0289,1.0214,1.0165,1.014,1.0126,1.0082,1.0083,1.0087,1.0082,1.0053,1.0055,1.0057,1.0032,1.0032,1.0032,0,0,1.0864,1.0814,1.0783,1.0734,1.0661,1.0611,1.0603,1.0518,1.0485,1.0429,1.0375,1.0332,1.0241,1.019,1.0152,1.015,1.0111,1.0134,1.0157,1.0131,1.0132,1.0134,1.0132,1.0132,1.0132,1.0132,1.0132,0,1.09,1.0834,1.0771,1.0729,1.0691,1.0628,1.0594,1.0549,1.0461,1.0436,1.0422,1.0305,1.0251,1.0188,1.0188,1.0159,1.0147,1.0144,1.0138,1.0138,1.0138,1.0135,1.0135,1.0135,1.0135,1.0135,1.0134,0,1.0882,1.0836,1.0819,1.0738,1.0698,1.066,1.0589,1.0556,1.0517,1.0468,1.041,1.0343,1.0273,1.0255,1.0215,1.0185,1.0179,1.0153,1.0128,1.0145,1.0141,1.0139,1.014,1.0139,1.0138,1.0137,0,0,1.0943,1.0827,1.0821,1.0783,1.0697,1.0659,1.0617,1.0551,1.0523,1.0464,1.0426,1.0349,1.0324,1.0281,1.0235,1.0212,1.0213,1.0188,1.0185,1.0194,1.0174,1.0194,1.0194,1.0187,1.0186,1.0186,1.018,0,1.0948,1.0873,1.0814,1.076,1.0716,1.0655,1.0618,1.056,1.0512,1.0465,1.0411,1.0358,1.033,1.0303,1.0277,1.0219,1.0208,1.0218,1.0148,1.0146,1.0169,1.0192,1.0214,1.0211,1.0178,1.0178,1.0178,0,1.0944,1.0889,1.0832,1.0749,1.0728,1.0697,1.063,1.0587,1.0519,1.0485,1.0438,1.039,1.0341,1.0322,1.0251,1.026,1.0227,1.0194,1.0192,1.0182,1.0163,1.0183,1.0209,1.0209,1.0175,1.0175,1.0175,0,1.0994,1.0905,1.0858,1.0827,1.073,1.0709,1.0667,1.0599,1.0562,1.0503,1.0478,1.0413,1.0377,1.0327,1.0262,1.0255,1.0198,1.0174,1.0167,1.0169,1.0158,1.0159,1.0179,1.0138,1.0138,1.0138,1.0138,0,1.1006,1.0972,1.0879,1.0851,1.0811,1.0742,1.0704,1.0656,1.0596,1.0555,1.0497,1.0459,1.0376,1.0328,1.0277,1.0225,1.021,1.018,1.0166,1.0184,1.0188,1.0162,1.016,1.0138,1.0138,1.0138,1.0138,0,1.1054,1.0991,1.0936,1.0848,1.0825,1.08,1.0724,1.0692,1.0641,1.059,1.0574,1.0493,1.0433,1.0363,1.028,1.0245,1.0197,1.0178,1.0221,1.0214,1.0211,1.0212,1.0213,1.0209,1.0173,1.0173,1.0174,0,1.1066,1.1039,1.0949,1.0918,1.0879,1.083,1.0793,1.0723,1.0686,1.0606,1.0584,1.052,1.0465,1.0371,1.0303,1.0238,1.0217,1.0222,1.0206,1.0225,1.0215,1.0218,1.0214,1.0226,1.0227,1.0227,1.0228,0,1.1093,1.1062,1.1012,1.095,1.0907,1.0854,1.0799,1.0777,1.0696,1.0656,1.0595,1.0553,1.0468,1.0405,1.0331,1.0285,1.0242,1.0233,1.0228,1.0246,1.0272,1.0257,1.0232,1.0233,1.0233,1.0232,1.0232,1.0232,1.1122,1.1095,1.1027,1.0972,1.0924,1.0873,1.0839,1.0784,1.0733,1.066,1.0621,1.0561,1.049,1.0388,1.0343,1.0293,1.0279,1.0271,1.0269,1.0269,1.0273,1.0281,1.0279,1.0279,1.0279,1.0279,1.0278,0,1.1145,1.1099,1.1049,1.0974,1.093,1.0896,1.0832,1.0797,1.0745,1.0685,1.0632,1.0561,1.0499,1.0426,1.0358,1.0332,1.031,1.0316,1.0317,1.0307,1.0291,1.0302,1.0335,1.0335,1.0335,1.0335,1.0335,1.0335,1.1152,1.1104,1.1066,1.0992,1.0945,1.0887,1.0853,1.0805,1.0756,1.0681,1.0629,1.0583,1.0516,1.0443,1.0384,1.0364,1.0341,1.0353,1.0327,1.0313,1.0308,1.0304,1.0313,1.0348,1.0348,1.0347,1.0347,1.0347]}]]